[Iaude] MPEC E53: 2024 CZ11 [a=1.98,e=0.54,i=5.9,H=23.0]
    mpec at cfa.harvard.edu 
    mpec at cfa.harvard.edu
       
    Tue Mar  5 11:08:16 EST 2024
    
    
  
M.P.E.C. 2024-E53                                 Issued 2024 March 5, 16:06 UT
     The Minor Planet Electronic Circulars contain information on unusual
         minor planets, routine data on comets and natural satellites,
         and occasional editorial announcements.  They are published
    on behalf of Division F of the International Astronomical Union by the
          Minor Planet Center, Smithsonian Astrophysical Observatory,
                          Cambridge, MA 02138, U.S.A.
			  
             Prepared using the Tamkin Foundation Computer Network
                              MPC at CFA.HARVARD.EDU
            URL https://www.minorplanetcenter.net/    ISSN 1523-6714
                                   2024 CZ11                                    
Observations:
     K24C11Z* C2024 02 10.55303110 49 42.853+14 15 35.51         22.24wXEE053F52
     K24C11Z  C2024 02 10.56407810 49 42.483+14 15 33.05         22.07wXEE053F52
     K24C11Z  C2024 02 10.57530110 49 42.126+14 15 30.58         22.11wXEE053F52
     K24C11Z  C2024 02 18.39264510 44 53.776+13 41 18.43         21.62GVEE053F51
     K24C11Z  C2024 02 18.40430610 44 53.052+13 41 14.65         21.39GVEE053F51
     K24C11Z  C2024 02 18.41602310 44 52.318+13 41 10.83         21.31GVEE053F51
     K24C11Z  C2024 02 18.42783410 44 51.578+13 41 07.10         21.31GVEE053F51
     K24C11Z  C2024 03 01.48495810 28 30.782+11 52 41.83         20.67wXEE053F51
     K24C11Z  C2024 03 01.50918110 28 27.616+11 52 20.51         20.59wXEE053F51
     K24C11Z  C2024 03 01.52128510 28 26.064+11 52 10.28         20.35wXEE053F51
     K24C11Z 1C2024 03 05.24601710 20 24.580+10 51 00.72         20.17GVEE053G96
     K24C11Z 1C2024 03 05.25128710 20 23.730+10 50 54.67         19.96GVEE053G96
     K24C11Z 1C2024 03 05.25654910 20 22.880+10 50 48.95         20.09GVEE053G96
     K24C11Z 1C2024 03 05.26182310 20 22.038+10 50 42.76         20.23GVEE053G96
     K24C11Z mC2024 03 05.35603410 20 06.846+10 48 53.64         20.13GVEE053I52
     K24C11Z mC2024 03 05.35873010 20 06.374+10 48 50.65         20.44GVEE053I52
     K24C11Z mC2024 03 05.36141610 20 05.978+10 48 47.16         20.96GVEE053I52
     K24C11Z mC2024 03 05.36411210 20 05.568+10 48 44.03         20.68GVEE053I52
Observer details:
F51 Pan-STARRS 1, Haleakala.  Observers J. Herman, T. Lowe, P. Minguez, A.
    Schultz, I. Smith.  Measurers K. Chambers, T. de Boer, J. Fairlamb, H.
    Gao, M. Huber, C.-C. Lin, E. Magnier, Y. Ramanjooloo, R. Wainscoat, R.
    Weryk.  1.8-m Ritchey-Chretien + CCD.
F52 Pan-STARRS 2, Haleakala.  Observers J. Herman, T. Lowe, P. Minguez, A.
    Schultz, I. Smith.  Measurers K. Chambers, T. de Boer, J. Fairlamb, H.
    Gao, M. Huber, C.-C. Lin, E. Magnier, Y. Ramanjooloo, R. Wainscoat, R.
    Weryk.  1.8-m Ritchey-Chretien + CCD.
G96 Mt. Lemmon Survey.  Observer G. J. Leonard.  Measurers T. Beuden, V. F.
    Carvajal, D. Fay, J. B. Fazekas, D. C. Fuls, A. R. Gibbs, A. D. Grauer, H.
    Groeller, J. K. Hogan, R. A. Kowalski, S. M. Larson, G. J. Leonard, D.
    Rankin, R. L. Seaman, F. C. Shelly, K. W. Wierzchos.  1.5-m reflector +
    10K CCD.
I52 Steward Observatory, Mt. Lemmon Station.  Observer J. K. Hogan.  Measurers
    T. Beuden, V. F. Carvajal, D. Fay, J. B. Fazekas, D. C. Fuls, A. R. Gibbs,
    A. D. Grauer, H. Groeller, J. K. Hogan, R. A. Kowalski, S. M. Larson, G.
    J. Leonard, D. Rankin, R. L. Seaman, F. C. Shelly, K. W. Wierzchos.  1.0-m
    prime focus + CCD.
Orbital elements:
2024 CZ11                                                Earth MOID = 0.0443 AU
Epoch 2024 Mar. 31.0 TT = JDT 2460400.5                 Bell                    
M 347.82075              (2000.0)            P               Q                  
n   0.35445821     Peri.  249.98969     -0.59171399     +0.80562614             
a   1.9773916      Node   343.63159     -0.69582239     -0.52857003             
e   0.5432593      Incl.    5.90673     -0.40706971     -0.26754483             
P   2.78           H   23.03          G   0.15           U   7                  
Residuals in seconds of arc
240210 F52  0.3+  0.1-    240218 F51  0.0   0.0     240305 G96  0.1-  0.2+
240210 F52  0.0   0.1-    240301 F51  0.0   0.3+    240305 G96  0.0   0.0
240210 F52  0.1-  0.0     240301 F51  0.1-  0.2-    240305 I52  0.1+  0.0
240218 F51  0.0   0.1+    240301 F51  0.1+  0.0     240305 I52  0.5-  0.1+
240218 F51  0.0   0.0     240305 G96  0.0   0.0     240305 I52  0.1+  0.2-
240218 F51  0.0   0.1-    240305 G96  0.0   0.1-    240305 I52  0.4+  0.1-
Ephemeris:
2024 CZ11                a,e,i = 1.98, 0.54, 6                   q = 0.9032
Date    TT    R. A. (2000) Decl.     Delta      r    Elong.  Phase     V
2024 02 04    10 51 06.9 +14 36 20   0.4619  1.4175   154.9    17.2    23.0
...
2024 02 19    10 44 20.6 +13 37 57   0.3140  1.2991   170.5     7.2    21.6
...
2024 02 27    10 34 35.7 +12 35 07   0.2473  1.2369   176.1     3.1    20.8
...
2024 03 04    10 23 17.8 +11 13 52   0.2023  1.1912   169.9     8.4    20.5
2024 03 05    10 20 59.4 +10 55 57   0.1952  1.1838   168.5     9.6    20.5
2024 03 06    10 18 32.5 +10 36 28   0.1882  1.1763   167.1    10.9    20.4
...
2024 03 12    10 00 16.6 +07 55 55   0.1487  1.1324   157.5    19.7    20.2
...
2024 03 20    09 20 51.0 +00 58 37   0.1025  1.0770   140.6    35.9    19.7
...
2024 04 04    05 27 24.2 -34 23 59   0.05888 0.9874    75.9   100.8    20.5
M. P. C. Staff               (C) Copyright 2024 MPC           M.P.E.C. 2024-E53
    
    
More information about the Iaude
mailing list